Regional Weather Roundup
Issued by NWS

Home | Current Version | Previous Version | Text Only | Print | Product List | Glossary Off
Versions: 1 2 3 4 5 6 7 8 9 10 11 12 13 14 15 16 17 18 19 20 21 22 23 24 25 26 27 28 29 30 31 32 33 34 35 36 37 38 39 40 41 42 43 44 45 46 47 48 49 50

000
ASUS45 KCYS 170510
RWRWY

WYOMING REGIONAL WEATHER ROUNDUP
NATIONAL WEATHER SERVICE CHEYENNE WY
1100 PM MDT TUE SEP 16 2014

NOTE:  "FAIR" INDICATES FEW OR NO CLOUDS BELOW 12,000 FEET
WITH NO SIGNIFICANT WEATHER AND/OR OBSTRUCTIONS TO VISIBILITY.

WYZ001-170600-
YELLOWSTONE NATIONAL PARK

CITY           SKY/WX    TMP DP  RH WIND       PRES   REMARKS
LK YELLOWSTONE   N/A     42  36  79 CALM      30.27S
W YELLOWSTONE  NOT AVBL

$$
WYZ002>013-054>058-071-098>099-170600-
NORTHERN WYOMING

CITY           SKY/WX    TMP DP  RH WIND       PRES   REMARKS
JACKSON        PTCLDY    50  41  71 CALM      30.18R
CODY           MOCLDY    57  45  62 CALM      30.07S
GREYBULL       PTCLDY    63  43  48 CALM      29.99R
WORLAND        PTCLDY    62  45  53 S8        30.00F
SHERIDAN       PTCLDY    58  45  62 S6        29.98F
BUFFALO        PTCLDY    62  37  39 W9        30.06F
GILLETTE       MOCLDY    51  42  71 S5        30.02F
HULETT         FAIR      59  39  47 MISG      30.03
NEWCASTLE      FAIR      59  34  38 CALM      30.04

$$
WYZ014>020-022>026-101>103-170600-
CENTRAL WYOMING

CITY           SKY/WX    TMP DP  RH WIND       PRES   REMARKS
BIG PINEY      MOCLDY    53  40  61 NW8       30.23S
PINEDALE       PTCLDY    61  36  39 NE5       30.23R
DUBOIS         FAIR      48  43  81 NW13      30.23S
LANDER         PTCLDY    65  38  36 S5        30.13S
RIVERTON       PTCLDY    65  40  39 W13       30.12R
CASPER         PTCLDY    63  34  33 NE7       30.10R
DOUGLAS        PTCLDY    63  36  36 W5        30.08R

$$
WYZ021-027>030-104>119-170600-
SOUTHERN WYOMING

CITY           SKY/WX    TMP DP  RH WIND       PRES   REMARKS
EVANSTON       CLEAR     60  39  45 SE9       30.22F
KEMMERER       CLEAR    N/A N/A N/A SE3       30.24F
FORT BRIDGER   FAIR      60  40  47 S9        30.25S
ROCK SPRINGS   NOT AVBL
DIXON          CLOUDY    64  38  39 E5        30.24S
RAWLINS        PTCLDY    65  34  31 W9        30.20S
SARATOGA       FAIR      55  37  50 NE5       30.23F
LARAMIE        PTCLDY    55  33  43 S10       30.24S
CHEYENNE       MOCLDY    63  36  36 SW8       30.16S
TORRINGTON     CLEAR     59  44  57 SE5       30.02R
PINE BLUFFS    FAIR      52  36  54 W6        30.11S

$$


USA.gov is the U.S. government's official web portal to all federal, state and local government web resources and services.